Regional Weather Roundup
Issued by NWS Goodland, KS

Home | Current Version | Previous Version | Text Only | Print | Product List | Glossary On
Versions: 1 2 3 4 5 6 7 8 9 10 11 12 13 14 15 16 17 18 19 20 21 22 23 24 25 26 27 28 29 30 31 32 33 34 35 36 37 38 39 40 41 42 43 44 45 46 47 48 49 50
000
ASUS43 KGLD 210308
RWRGLD

GOODLAND FORECAST AREA HOURLY WEATHER ROUNDUP
NATIONAL WEATHER SERVICE GOODLAND KS
900 PM MDT WED AUG 20 2014

...OFFICIAL OBSERVATIONS...

CITY           SKY/WX    TMP DP  RH WIND       PRES   REMARKS
GOODLAND KS    CLOUDY    75  62  64 NW9       29.82S
HILL CITY KS   PTCLDY    88  62  41 S13       29.75R
IMPERIAL NEB   CLOUDY    71  65  81 E8        29.83F
MCCOOK NEB     CLOUDY    82  58  43 E3        29.74S
AKRON CO       PTCLDY    73  54  51 SE3       29.91R
BURLINGTON CO  MOCLDY    73  57  57 N6        29.87F
LIMON CO       PTCLDY    68  52  56 VRB3      29.96R
$$

...UNOFFICIAL OBSERVATIONS...

CITY           SKY/WX    TMP DP  RH WIND       PRES   REMARKS
COLBY KS       PTCLDY    75  66  73 CALM      29.80R
LENORA KS        N/A     85  32  15 CALM        N/A
NORTON KS      MOCLDY    75  63  64 N14       29.77
SHARON SPRINGS   N/A     81  58  44 SE10        N/A
WAKEENEY KS      N/A     88  53  30 MISG        N/A
KIT CARSON CO    N/A     77  53  43 MISG        N/A
YUMA CO          N/A     69  62  78 CALM        N/A
$$


USA.gov is the U.S. government's official web portal to all federal, state and local government web resources and services.